Temp
58 58 58 59 59 59 59 59 59 59 59 60 60 61 61 61 63 56 49 56 60 66 64 58 59 57 57 54 54 48 39 36 37 39 40 49 46 51 52 48 51 53 50 52 56
57 57 58 58 58 59 59 59 59 59 59 60 60 60 61 60 54 51 61 67 67 66 57 55 54 55 50 51 50 44 37 39 42 43 41 45 46 45 47 47 46 48 52 56 54
57 57 57 57 58 58 58 58 58 59 59 60 60 60 60 57 51 50 65 67 67 64 56 54 54 53 49 48 47 44 40 45 45 47 47 45 44 46 43 41 43 44 48 51 49
56 56 56 56 57 58 58 58 58 58 59 60 60 60 60 53 42 54 64 65 65 62 58 55 53 48 44 43 47 42 47 46 49 49 48 45 47 45 42 42 49 50 49 47 46
55 55 56 56 56 57 57 57 58 58 59 60 60 60 54 47 46 59 62 61 60 58 53 52 49 46 42 43 45 42 43 47 48 48 45 47 43 41 43 48 49 50 48 45 44
55 55 55 55 56 56 57 57 58 58 59 60 60 60 49 43 57 58 57 58 57 55 52 52 48 49 46 43 42 41 42 43 45 45 46 44 41 43 41 46 48 48 43 42 42
55 55 55 55 56 56 56 57 58 58 59 60 61 56 48 44 55 55 58 54 55 53 50 51 50 48 46 42 44 43 39 41 44 45 44 44 41 39 43 46 46 44 40 41 41
55 54 55 55 55 56 56 57 57 58 59 60 61 51 42 56 53 57 57 55 56 57 53 52 53 50 46 45 43 39 36 33 42 45 45 44 34 42 44 43 44 41 35 40 40
55 54 54 55 55 55 56 57 57 59 59 60 52 48 40 59 52 54 54 51 53 54 54 59 51 43 43 36 34 34 30 32 37 43 42 41 35 43 45 43 41 39 36 38 38
55 54 54 55 55 56 56 57 57 57 57 57 56 45 48 45 50 53 54 54 50 48 49 47 40 36 34 33 29 31 30 32 29 38 38 34 36 41 42 41 38 34 34 36 37
55 54 54 55 55 56 50 48 47 46 48 42 43 44 46 51 53 51 52 51 49 45 36 39 33 30 31 34 35 34 32 28 31 38 34 31 33 37 39 38 36 34 34 36 37
55 55 54 54 55 55 46 45 43 47 39 47 47 47 49 49 44 48 53 44 43 36 37 36 31 36 40 39 36 35 31 28 33 37 33 33 32 34 36 35 34 34 35 36 36
55 54 54 54 54 48 44 45 47 45 40 42 46 46 46 49 42 43 48 44 40 35 34 33 35 41 39 35 34 31 31 29 31 34 32 31 30 31 35 36 38 37 36 36 35
55 54 54 53 47 43 42 46 47 45 33 37 40 44 47 47 40 49 49 44 40 34 35 33 38 37 35 34 34 31 34 33 32 28 22 30 17 29 32 34 36 36 33 34 35
55 54 53 52 42 42 44 47 46 45 22 38 40 50 47 42 41 43 48 44 35 36 35 32 32 34 33 34 36 33 34 32 32 27 24 25 18 27 31 31 32 34 34 34 35
54 54 53 46 42 43 46 45 44 30 23 31 39 38 38 40 40 43 42 46 41 36 36 33 37 35 35 36 35 36 33 31 27 25 8 23 22 23 26 29 31 33 33 34 34
54 53 49 46 41 44 44 42 29 25 34 29 32 36 35 34 36 37 35 33 31 27 28 32 32 34 37 33 35 34 26 9 10 7 8 24 21 25 28 31 30 30 32 33 34
54 52 49 46 44 44 42 34 25 25 26 34 34 34 32 35 34 34 32 29 32 30 27 25 22 31 35 32 31 30 27 11 3 5 12 25 15 26 31 31 32 33 32 33 33
51 40 40 41 45 43 37 25 27 29 33 32 34 26 27 31 32 31 28 28 32 33 28 24 25 32 35 34 33 29 20 29 10 3 6 17 25 31 31 30 30 30 31 30 32
40 38 38 43 44 41 28 31 29 37 37 36 33 28 22 22 28 28 28 31 32 33 31 30 22 31 32 33 33 31 33 19 12 2 -0 12 18 22 25 26 28 27 27 29 31
40 35 38 43 43 34 21 24 32 39 40 36 30 25 28 24 28 24 28 30 32 32 33 30 28 25 30 27 26 24 19 22 22 17 5 1 13 26 26 26 25 25 28 28 29
36 27 38 40 30 17 18 29 39 34 37 36 35 32 28 26 24 25 28 29 34 34 29 31 26 15 21 25 26 28 27 24 11 10 13 10 14 30 27 27 26 27 28 29 29
33 30 38 37 21 19 21 31 34 33 34 34 34 34 31 28 26 25 28 31 33 31 28 30 18 6 16 23 26 25 27 24 13 11 10 2 13 28 28 26 27 25 26 26 29
32 25 29 33 29 27 23 26 29 34 34 36 33 33 30 25 25 20 27 30 32 31 39 33 16 15 16 21 21 22 24 24 14 3 6 13 14 26 25 21 23 23 24 24 26
33 29 28 22 26 26 33 30 32 27 33 34 31 33 31 23 22 18 22 27 30 34 27 26 16 11 11 18 18 22 23 21 14 10 13 21 12 11 13 8 11 22 24 24 24
30 29 29 24 33 29 32 28 32 29 31 30 29 32 29 26 30 24 23 22 26 23 21 21 12 14 10 17 17 16 21 21 20 13 13 15 17 23 23 22 17 18 18 21 19
32 33 35 31 31 28 32 34 35 36 32 35 32 28 27 30 27 27 28 27 24 22 17 18 13 9 5 13 10 11 17 20 15 12 10 7 16 20 13 17 8 14 13 13 15
MSLP
1022.25 1022.69 1022.38 1021.96 1022.07 1021.90 1021.67 1021.58 1021.31 1021.06 1020.89 1020.67 1020.64 1020.38 1020.04 1019.50 1019.04 1019.00 1020.00 1020.43 1019.79 1019.02 1018.52 1017.86 1017.54 1017.54 1017.55 1018.31 1018.62 1019.15 1020.60 1021.89 1021.77 1021.58 1021.41 1021.03 1020.90 1020.80 1020.60 1020.42 1020.26 1020.48 1020.76 1021.27 1021.43
1022.43 1022.65 1022.44 1022.11 1022.08 1021.95 1021.77 1021.66 1021.42 1021.32 1021.02 1020.78 1020.53 1020.40 1020.16 1019.86 1019.79 1020.12 1020.49 1019.91 1019.42 1018.97 1018.88 1018.77 1018.65 1018.26 1018.68 1019.20 1019.44 1020.01 1021.34 1021.62 1021.55 1021.41 1021.74 1021.64 1021.48 1021.40 1021.14 1021.20 1021.00 1021.17 1021.28 1021.46 1021.80
1022.77 1022.70 1022.41 1022.25 1022.04 1022.08 1021.83 1021.76 1021.52 1021.22 1021.18 1020.92 1020.56 1020.34 1020.22 1019.93 1020.20 1020.82 1020.23 1019.70 1019.27 1018.94 1019.16 1019.22 1018.99 1019.00 1019.61 1019.90 1020.42 1020.65 1021.41 1021.50 1021.63 1021.55 1021.58 1021.81 1021.95 1021.89 1021.82 1021.80 1021.68 1021.84 1022.03 1022.25 1022.40
1022.94 1022.72 1022.66 1022.28 1022.04 1022.07 1021.86 1021.81 1021.64 1021.20 1021.11 1021.02 1020.64 1020.41 1020.15 1020.07 1021.19 1021.04 1020.32 1019.83 1019.38 1018.93 1018.89 1019.26 1019.53 1019.82 1020.72 1021.04 1021.11 1021.63 1021.83 1021.74 1021.65 1021.69 1021.84 1022.05 1021.98 1022.18 1022.32 1022.33 1022.34 1022.56 1022.74 1023.18 1023.44
1022.84 1022.70 1022.76 1022.46 1022.27 1022.02 1021.93 1021.74 1021.60 1021.31 1021.12 1020.83 1020.71 1020.53 1020.32 1020.84 1021.54 1020.91 1020.56 1020.01 1019.54 1019.39 1019.87 1019.91 1020.24 1020.84 1021.41 1021.70 1021.81 1022.27 1022.54 1022.36 1022.29 1022.26 1022.12 1022.17 1022.43 1022.55 1022.70 1022.66 1022.63 1022.96 1023.53 1024.15 1024.39
1022.74 1022.72 1022.73 1022.61 1022.53 1022.19 1021.85 1021.73 1021.49 1021.34 1021.11 1020.88 1020.69 1020.63 1020.72 1021.36 1021.57 1021.25 1020.88 1020.39 1020.32 1020.17 1020.47 1020.61 1021.00 1021.01 1021.45 1021.98 1022.27 1022.69 1022.75 1022.77 1022.58 1022.63 1022.57 1022.58 1022.75 1022.83 1023.05 1022.95 1023.28 1023.81 1024.49 1024.92 1025.06
1022.77 1022.66 1022.64 1022.74 1022.58 1022.25 1021.73 1021.63 1021.29 1021.30 1021.07 1021.07 1020.81 1020.99 1021.35 1022.11 1021.57 1021.41 1021.01 1020.87 1020.89 1020.68 1020.90 1020.98 1021.06 1021.15 1021.68 1022.31 1022.59 1022.83 1023.16 1023.06 1023.11 1023.04 1023.13 1023.15 1023.28 1023.46 1023.43 1023.43 1024.07 1024.62 1025.12 1025.51 1025.72
1022.57 1022.63 1022.61 1022.73 1022.49 1022.25 1021.60 1021.55 1021.32 1021.08 1021.10 1020.93 1021.01 1021.21 1021.94 1021.74 1021.74 1021.44 1021.28 1021.08 1021.04 1020.99 1021.14 1020.99 1021.09 1021.68 1022.36 1022.83 1023.23 1023.63 1023.98 1024.28 1024.14 1023.74 1023.77 1023.51 1023.96 1023.79 1023.78 1024.16 1024.69 1025.13 1025.66 1026.09 1026.43
1022.41 1022.52 1022.60 1022.69 1022.36 1022.15 1021.43 1021.44 1021.34 1021.14 1021.04 1021.04 1021.10 1021.41 1022.35 1021.81 1021.87 1021.92 1021.71 1021.72 1021.43 1021.38 1021.52 1021.36 1021.52 1022.89 1023.30 1023.81 1024.32 1024.84 1025.13 1025.42 1025.18 1025.01 1024.92 1024.98 1024.79 1024.46 1024.39 1024.63 1025.16 1025.54 1026.37 1026.82 1026.84
1022.37 1022.49 1022.59 1022.50 1022.33 1021.98 1021.47 1021.33 1021.23 1021.05 1021.05 1021.24 1021.38 1022.08 1022.65 1022.71 1022.40 1022.24 1021.93 1021.81 1021.96 1021.94 1022.16 1022.61 1023.27 1024.13 1024.87 1024.82 1025.54 1025.70 1025.95 1025.99 1026.18 1026.28 1025.80 1025.95 1025.63 1025.06 1025.18 1025.38 1025.81 1026.10 1026.94 1027.34 1027.49
1022.13 1022.43 1022.59 1022.72 1022.12 1021.93 1021.67 1021.55 1022.03 1022.08 1022.09 1022.59 1022.70 1022.80 1022.85 1022.83 1022.59 1022.62 1022.46 1022.20 1022.30 1022.65 1023.44 1023.90 1024.72 1025.76 1025.85 1025.62 1025.65 1025.85 1026.24 1026.61 1026.50 1026.58 1026.73 1026.85 1026.53 1026.31 1026.03 1026.20 1026.66 1027.20 1027.59 1027.74 1027.84
1021.86 1022.30 1022.47 1022.46 1022.26 1022.01 1022.05 1022.45 1022.35 1022.47 1023.03 1023.14 1022.98 1022.88 1023.03 1023.08 1023.06 1023.04 1022.73 1022.90 1023.02 1023.84 1023.99 1024.59 1025.46 1025.85 1025.79 1025.74 1025.91 1026.25 1026.76 1027.14 1027.12 1027.03 1027.39 1027.38 1027.08 1026.93 1026.82 1027.21 1027.62 1027.85 1028.05 1028.32 1028.43
1021.44 1022.16 1022.36 1022.33 1022.17 1022.43 1022.39 1022.64 1022.70 1022.51 1022.90 1023.60 1023.41 1023.27 1023.35 1023.35 1023.61 1023.55 1023.25 1023.42 1023.71 1024.30 1024.79 1025.13 1025.72 1025.63 1025.80 1026.17 1026.28 1026.72 1027.01 1027.54 1027.98 1027.84 1028.14 1028.03 1027.86 1027.48 1027.18 1027.49 1027.79 1028.23 1028.57 1028.69 1028.73
1021.28 1021.92 1022.14 1022.20 1022.57 1022.72 1022.79 1022.78 1022.73 1022.68 1023.33 1024.01 1023.76 1023.56 1023.48 1023.48 1023.95 1023.83 1023.67 1023.82 1024.20 1024.88 1025.29 1025.92 1025.78 1025.64 1025.92 1026.33 1026.55 1026.89 1027.25 1027.72 1028.24 1028.89 1029.53 1029.33 1029.34 1028.31 1027.94 1028.07 1028.35 1028.69 1028.67 1028.91 1029.03
1021.11 1021.64 1021.89 1022.21 1022.75 1022.82 1022.91 1022.82 1022.78 1022.99 1023.92 1024.33 1023.94 1023.64 1023.65 1024.02 1024.54 1024.24 1023.92 1023.90 1024.56 1024.99 1025.44 1026.35 1026.21 1026.03 1026.15 1026.50 1026.67 1027.28 1027.72 1028.48 1029.13 1029.91 1030.71 1030.74 1030.46 1028.80 1028.54 1028.94 1029.08 1029.08 1029.10 1029.22 1029.41
1020.89 1021.41 1021.64 1022.21 1022.85 1022.97 1022.98 1022.85 1023.04 1023.95 1024.31 1024.47 1024.22 1024.09 1024.27 1024.31 1024.64 1024.66 1024.41 1024.44 1025.08 1025.52 1025.89 1026.42 1026.30 1026.30 1026.39 1026.69 1026.92 1027.39 1028.40 1029.64 1030.79 1031.49 1032.48 1031.91 1031.28 1030.02 1029.54 1029.75 1029.81 1029.70 1029.60 1029.56 1029.45
1020.80 1021.20 1021.84 1022.12 1022.58 1022.71 1023.24 1023.41 1024.27 1024.39 1024.79 1024.98 1024.77 1024.78 1024.93 1025.12 1025.10 1025.21 1025.10 1025.34 1025.64 1026.42 1026.98 1027.11 1026.99 1026.84 1026.69 1027.13 1027.42 1028.10 1029.46 1031.41 1033.11 1033.60 1034.04 1032.70 1031.81 1030.08 1029.95 1030.12 1030.40 1030.51 1030.39 1030.10 1030.16
1020.69 1021.17 1021.88 1022.25 1022.43 1022.84 1023.35 1024.05 1024.52 1024.09 1024.57 1024.61 1024.84 1025.38 1025.64 1025.49 1025.54 1025.73 1025.82 1026.01 1026.02 1026.22 1027.08 1027.39 1027.80 1027.34 1027.25 1027.73 1028.14 1029.12 1030.51 1032.54 1034.64 1036.06 1035.46 1033.49 1032.04 1030.50 1030.49 1030.57 1030.63 1030.87 1031.08 1030.78 1030.44
1020.68 1021.81 1022.30 1022.55 1022.57 1023.02 1023.76 1024.47 1023.47 1023.33 1023.44 1024.23 1025.27 1025.88 1026.28 1026.16 1026.17 1026.27 1026.39 1026.39 1026.03 1026.13 1026.45 1027.18 1027.99 1027.99 1027.79 1028.04 1028.76 1029.92 1031.18 1032.63 1034.49 1037.08 1036.55 1034.11 1032.00 1030.78 1030.86 1030.94 1031.21 1031.35 1031.23 1031.07 1030.98
1020.57 1021.94 1022.62 1022.52 1022.64 1023.22 1024.38 1023.78 1022.99 1022.41 1023.05 1023.42 1023.90 1024.89 1026.17 1026.66 1026.94 1026.98 1026.85 1026.08 1026.23 1026.44 1026.51 1027.28 1028.57 1028.99 1028.80 1028.80 1029.43 1030.07 1031.44 1032.98 1035.08 1037.39 1037.34 1035.05 1032.97 1031.26 1031.43 1031.81 1031.95 1031.87 1032.08 1031.72 1031.19
1020.19 1021.94 1022.60 1022.56 1022.61 1023.83 1024.04 1023.65 1022.90 1022.18 1021.98 1023.30 1023.25 1024.59 1025.43 1026.29 1026.82 1027.04 1026.68 1026.43 1026.25 1026.73 1026.73 1027.36 1028.12 1030.19 1029.69 1029.73 1030.05 1031.15 1032.07 1033.56 1035.15 1037.02 1037.62 1036.09 1033.41 1031.09 1031.78 1032.37 1032.46 1032.56 1032.39 1032.11 1031.74
1019.53 1022.30 1023.04 1022.58 1023.62 1023.63 1024.05 1022.41 1022.13 1022.27 1022.24 1022.20 1023.19 1023.85 1024.65 1025.83 1026.78 1027.14 1026.79 1026.70 1026.37 1026.56 1027.41 1027.79 1028.96 1031.03 1031.02 1030.57 1030.74 1031.09 1031.76 1033.30 1035.95 1037.42 1037.38 1036.49 1033.00 1031.48 1031.91 1032.54 1032.59 1032.72 1032.51 1032.40 1032.14
1019.11 1022.06 1023.28 1022.34 1022.99 1023.85 1023.53 1022.28 1021.86 1022.30 1022.29 1022.29 1023.00 1023.38 1024.49 1025.63 1026.76 1027.06 1026.85 1027.12 1026.91 1026.98 1027.21 1027.98 1030.12 1031.91 1032.34 1032.11 1031.51 1031.71 1031.90 1033.49 1035.46 1036.88 1037.33 1036.97 1033.46 1031.89 1032.10 1032.52 1033.01 1033.28 1033.05 1032.82 1032.55
1017.54 1021.24 1022.94 1022.84 1021.83 1021.38 1022.16 1021.60 1021.43 1021.43 1021.73 1021.85 1022.67 1023.40 1024.73 1025.76 1026.75 1027.40 1027.59 1027.73 1027.58 1027.47 1027.70 1028.42 1030.60 1031.77 1031.90 1031.56 1031.34 1031.85 1031.97 1033.30 1035.00 1037.01 1037.05 1035.18 1033.29 1032.52 1033.07 1033.71 1033.82 1034.08 1033.98 1033.79 1033.76
1015.68 1017.36 1018.21 1020.23 1020.14 1020.51 1020.25 1020.23 1020.86 1021.04 1021.53 1021.61 1022.61 1022.56 1023.62 1026.09 1027.25 1027.77 1027.96 1028.23 1028.48 1028.46 1028.98 1029.78 1031.70 1033.09 1033.32 1032.83 1032.09 1031.59 1031.93 1033.12 1034.72 1035.18 1036.01 1034.01 1034.32 1033.62 1034.14 1034.58 1035.02 1035.19 1035.08 1035.08 1034.79
1013.47 1015.00 1016.94 1017.36 1018.20 1019.74 1019.48 1018.55 1018.58 1019.46 1019.80 1020.98 1021.44 1022.25 1023.02 1024.71 1025.37 1026.75 1027.52 1028.38 1028.27 1029.79 1030.38 1031.26 1033.18 1034.19 1034.90 1034.40 1033.58 1032.60 1032.13 1032.62 1033.74 1034.96 1035.13 1034.84 1034.16 1033.70 1034.51 1035.10 1035.79 1036.10 1036.44 1036.56 1036.26
1012.32 1013.50 1013.87 1015.78 1016.85 1018.19 1015.98 1015.89 1016.45 1018.13 1019.37 1019.72 1020.80 1022.41 1023.87 1024.48 1025.54 1026.13 1026.90 1027.26 1028.13 1029.43 1031.31 1032.33 1033.85 1035.82 1036.60 1035.80 1034.31 1032.73 1030.55 1031.26 1032.40 1033.02 1033.99 1034.56 1033.86 1034.23 1035.30 1035.93 1036.53 1036.86 1037.32 1037.52 1037.43
Wind_Speed
6 5 7 8 9 10 10 11 10 10 10 12 13 14 13 16 7 7 8 5 9 16 14 6 7 9 6 5 6 3 7 3 2 0 2 5 3 5 5 3 4 4 3 3 7
4 5 7 7 9 9 10 10 10 10 10 11 12 12 13 13 4 10 5 14 13 12 7 9 8 8 5 5 5 6 5 3 2 3 1 3 3 5 5 7 2 2 3 6 6
3 4 6 7 8 9 10 10 10 10 11 11 10 11 12 6 3 4 14 16 15 9 1 1 2 3 6 5 5 2 4 4 2 2 2 1 3 3 3 4 2 3 5 6 7
2 4 6 7 8 9 10 10 10 9 11 10 9 11 11 2 3 4 16 16 13 7 4 6 7 5 5 4 5 6 5 2 1 3 3 4 3 6 1 3 3 6 4 5 10
1 4 5 7 8 9 9 9 9 8 9 8 10 11 3 7 2 6 14 11 5 5 7 4 7 3 4 3 4 5 4 4 5 6 3 1 3 3 5 8 4 6 9 9 7
0 4 6 7 8 8 8 8 8 7 8 8 9 8 2 5 5 7 8 7 6 5 6 7 3 1 5 3 5 1 2 5 4 5 3 2 2 3 2 5 7 8 7 7 8
2 3 5 7 8 8 8 9 7 7 8 8 10 3 7 2 3 7 7 4 5 3 3 3 1 4 2 3 1 1 4 4 8 5 4 4 4 2 4 3 7 6 5 6 8
3 2 4 7 9 10 8 8 6 5 7 7 8 3 3 4 3 5 7 4 7 5 2 2 3 5 4 1 6 5 6 4 7 8 6 5 6 3 5 6 7 5 3 6 7
4 1 4 7 9 11 8 7 5 6 6 7 3 4 1 6 4 5 4 3 5 4 5 2 5 4 6 4 4 8 3 5 4 7 6 9 7 5 8 8 8 6 6 6 6
4 2 3 6 9 10 9 4 4 5 3 1 2 4 4 2 3 4 4 4 4 3 6 8 6 5 6 6 2 3 4 3 2 8 6 4 8 10 8 8 8 4 6 6 7
6 3 3 7 8 8 5 3 4 6 9 3 0 3 1 3 3 6 4 5 4 7 4 5 9 4 3 3 3 5 3 1 2 1 4 2 7 10 9 8 9 6 5 5 6
8 4 2 5 7 6 2 3 2 4 6 5 2 4 2 1 3 6 6 4 4 3 2 7 5 1 2 4 5 5 3 2 4 2 2 6 8 5 6 4 5 4 6 7 6
10 6 2 4 5 3 2 5 1 1 6 2 2 3 1 3 2 4 4 1 4 4 5 5 4 3 2 4 4 3 5 1 3 6 3 5 5 6 2 3 4 5 4 4 5
12 7 2 4 2 1 1 2 1 1 6 1 1 2 1 2 3 2 3 2 5 4 4 4 1 4 4 4 1 2 3 2 2 3 1 4 4 6 5 6 7 6 3 4 6
13 10 5 4 2 3 2 3 0 3 3 2 1 1 2 3 2 5 2 4 3 4 4 2 2 3 4 2 1 2 1 2 1 4 3 6 5 8 4 6 7 9 6 5 6
15 11 9 4 2 1 2 3 3 9 7 2 1 2 3 2 2 1 3 6 1 5 6 2 1 2 3 2 2 2 3 6 4 3 5 3 4 6 3 3 6 8 10 5 6
16 12 6 3 4 4 2 3 7 5 4 3 3 3 2 3 2 1 2 3 4 6 1 3 3 2 2 3 4 5 5 5 8 7 5 0 2 7 2 5 3 6 10 8 8
17 13 4 2 3 4 3 7 4 2 6 2 4 4 4 5 2 2 4 2 3 4 4 6 5 2 2 2 3 4 4 7 5 1 5 3 5 2 6 4 5 6 6 7 7
18 2 3 1 4 3 5 3 11 8 8 10 4 5 3 2 3 3 5 4 6 7 6 6 2 1 4 2 3 1 4 2 8 2 4 3 6 3 4 8 8 8 9 10 9
5 3 2 4 4 4 6 7 6 5 7 3 9 5 8 5 5 6 7 4 4 3 1 6 5 2 1 2 4 2 5 5 5 2 6 5 5 6 2 6 7 10 9 10 9
5 4 2 2 3 4 6 9 5 5 6 6 6 6 5 9 7 5 6 0 4 4 3 4 5 2 2 3 6 1 2 5 5 4 6 3 7 5 7 3 6 6 7 8 9
5 4 2 2 3 1 4 9 5 5 2 4 4 4 7 7 6 4 9 2 6 7 7 3 6 4 2 3 1 3 5 6 7 7 3 3 8 7 8 5 3 6 7 8 7
7 4 2 2 7 4 4 4 7 6 6 7 6 1 2 7 3 5 6 2 4 5 9 7 2 4 8 8 3 4 4 5 6 3 6 6 8 9 6 3 5 6 7 8 9
7 7 1 2 1 8 8 7 9 3 5 5 6 5 4 4 2 6 4 0 2 2 4 6 4 8 9 6 6 6 6 6 7 5 5 11 9 12 6 8 7 8 8 8 7
4 6 8 13 13 5 9 13 12 9 4 6 1 8 11 5 2 4 2 3 4 2 3 4 5 3 1 2 0 3 6 9 9 7 9 13 9 7 7 3 3 4 6 6 9
10 9 3 2 11 15 13 14 22 8 15 9 6 10 5 9 7 10 8 4 7 2 3 3 3 3 3 3 1 5 7 9 7 4 9 5 17 4 4 4 4 6 6 7 6
2 3 5 12 13 17 23 24 25 14 2 2 12 8 5 5 4 3 6 9 6 8 4 6 8 4 6 3 3 9 12 15 7 5 9 7 10 3 1 2 1 2 3 3 5
Wind_Direction
42 16 18 24 10 7 8 5 6 7 0 1 353 350 350 357 21 37 42 295 317 323 331 315 12 0 35 44 37 94 62 86 33 4 198 339 35 345 303 19 29 29 55 16 358
41 23 14 16 10 2 4 360 2 0 357 353 354 350 350 356 43 54 329 333 327 333 5 24 358 356 45 18 19 68 89 148 207 134 106 338 13 323 11 348 30 64 345 8 11
29 12 18 8 8 357 3 353 356 2 353 349 352 349 346 351 53 337 332 340 335 346 213 294 288 24 54 28 356 73 126 162 36 112 86 317 1 314 11 357 342 331 328 11 10
9 7 2 9 1 357 1 352 349 1 354 354 359 352 337 0 121 281 334 337 339 359 54 21 20 46 60 52 348 85 52 30 85 27 8 350 326 344 55 259 343 358 42 38 26
354 360 349 360 351 353 352 349 347 354 353 5 1 349 5 51 32 310 334 342 359 23 44 50 56 36 72 49 44 53 357 355 347 322 302 44 328 304 324 322 349 65 51 46 31
7 349 345 347 342 345 348 343 348 352 355 1 359 344 17 69 301 327 333 355 15 33 26 34 92 66 91 73 77 306 351 316 354 337 28 2 322 17 7 336 44 60 60 46 35
225 346 344 337 337 340 348 340 350 352 349 348 354 23 56 137 332 326 5 6 352 29 65 32 348 93 125 98 20 56 46 27 15 11 41 332 35 23 311 346 58 53 68 50 29
201 339 338 331 335 335 345 341 344 347 336 342 346 55 86 294 303 7 344 354 2 22 55 5 22 87 52 63 24 52 51 52 347 5 2 55 277 336 344 17 337 354 73 44 25
190 277 331 328 336 332 341 337 336 333 319 330 46 79 42 328 30 320 22 2 329 4 7 36 64 81 25 69 36 19 83 33 13 32 9 44 279 279 325 328 312 335 74 44 2
195 239 321 332 336 334 329 310 316 2 12 307 73 53 358 359 331 333 337 18 28 1 16 32 45 66 32 44 99 46 38 40 3 328 7 315 292 316 315 323 339 63 73 37 19
191 215 313 329 343 344 5 48 38 14 41 91 341 95 62 312 4 359 1 2 22 48 52 9 62 72 69 53 109 112 102 336 239 224 347 11 290 316 332 15 15 61 60 32 17
192 208 284 329 340 350 55 73 125 154 95 13 61 72 66 348 43 347 1 62 55 77 31 31 89 255 127 74 91 71 107 349 293 275 23 343 307 312 357 8 8 48 27 13 3
184 192 253 329 341 24 84 144 198 208 86 20 15 76 320 19 70 331 23 14 82 65 36 113 151 74 94 52 87 61 120 127 216 324 81 329 334 340 337 33 33 46 43 17 356
178 178 186 335 44 225 69 182 169 308 73 270 357 17 12 105 41 307 1 86 34 125 111 89 1 108 83 85 107 116 185 183 259 57 328 3 267 323 347 355 21 358 358 322 347
171 168 144 73 150 130 164 152 134 34 22 90 177 296 344 111 118 346 332 24 115 121 121 188 119 100 88 138 307 179 177 317 32 94 69 356 71 266 3 27 339 345 337 332 350
166 161 137 112 69 272 146 106 54 47 262 179 67 134 83 52 35 341 41 45 76 73 39 100 339 68 135 90 35 322 96 49 49 77 43 258 97 286 19 298 332 340 340 318 307
163 154 134 129 169 144 131 56 49 144 358 236 164 160 134 154 110 135 131 129 149 103 190 32 346 344 82 85 11 55 49 345 1 15 207 276 40 245 1 22 4 336 333 328 331
158 135 91 79 114 124 87 56 127 216 211 152 121 104 192 165 171 152 125 177 249 112 120 148 316 165 8 58 147 49 121 148 217 265 272 329 231 212 80 68 47 31 357 359 350
126 74 90 124 119 82 84 121 197 199 163 150 72 109 264 239 159 148 194 216 207 178 150 140 131 26 60 60 79 245 57 165 99 67 44 252 284 83 82 32 19 7 5 356 338
108 108 153 155 125 79 80 228 209 148 129 167 167 145 175 205 160 177 183 200 196 205 140 193 102 343 111 98 47 104 151 65 15 22 298 284 277 232 61 10 1 6 347 328 332
91 116 177 167 114 58 175 218 214 194 143 173 186 136 179 174 181 198 198 329 178 154 108 142 107 244 138 183 168 27 38 56 108 143 182 278 253 192 132 123 3 331 328 322 320
129 142 282 90 119 137 174 181 163 173 170 165 135 113 160 156 164 211 203 278 171 157 155 174 127 139 207 313 314 236 175 132 124 250 238 154 274 132 146 151 7 343 320 319 323
118 110 313 70 182 211 290 162 169 144 193 167 179 153 133 154 145 194 163 346 181 151 163 188 326 61 353 357 341 230 169 110 108 84 205 135 258 184 149 36 26 329 335 342 340
127 130 136 250 139 157 156 201 179 196 169 157 142 93 117 90 44 178 141 171 348 135 103 93 101 157 179 182 152 189 176 149 130 134 195 224 279 281 324 335 346 350 353 349 341
163 177 182 188 212 191 182 166 182 172 218 170 214 192 153 132 96 182 125 112 20 69 53 113 161 125 305 306 158 191 173 170 190 190 190 266 219 257 270 246 294 337 3 21 19
141 153 145 136 148 176 191 201 192 181 157 208 189 164 133 148 199 183 143 197 184 64 115 14 122 93 5 2 77 265 225 224 208 184 267 276 281 150 97 86 40 33 19 24 6
106 48 130 157 165 176 205 204 207 163 279 188 146 111 178 166 116 49 60 74 120 140 132 123 135 98 254 342 336 308 225 202 179 190 156 181 226 149 108 142 241 30 350 326 346